www.pogodaiklimat.ru

Погода и климат >> Архив погоды >> Португалия >> Визеу


ПОГОДА в Визеу

  • Прогноз погоды в Визеу
  • Монитор погоды в Визеу

АРХИВ ПОГОДЫ в Визеу

Время (UTC), дата Ветер
(напр.,м/с)
 
Видим.   Явления Облачность Т
(С)
Тd
(С)
f
(%)
Тe
(С)
Тes
(С)
Комфортность P
(гПа)
Po
(гПа)
Тmin
(С)
Tmax
(С)
R
(мм)
R24
(мм)
S
(см)
07 19.06 З 4 н/о н/о +13.1 +13.1 100 +11 +11 1015.6 941.1 0.6
08 19.06 З 4 8000 м {ливн. осадки} 9/9 240 м
[Frnb]
+13.3 +13.3 100 +11 +12 1016.0 941.5
09 19.06 З 3 8000 м {ливн. осадки} 9/9 240 м
[Frnb]
+14.2 +14.2 100 +13 +14 1016.2 941.9
10 19.06 З 2 15 км 9/9 240 м
[Frnb]
+14.6 +14.6 100 +14 +16 1016.5 942.3
11 19.06 З 2 15 км 9/9 360 м
[Cu med, cong]
+15.1 +15.1 100 +15 +17 1016.8 942.8
12 19.06 СЗ 2 15 км 9/9 360 м
[Cu med, cong]
+16.1 +15.0 93 +16 +18 1016.4 942.6 2
13 19.06 З 3 15 км 9/9 360 м
[Cu med, cong]
+17.5 +14.9 85 +18 +19 1015.9 942.5
14 19.06 ЮЗ 3 15 км 9/9 360 м
[Cu med, cong]
+16.8 +16.1 96 +17 +18 1016.1 942.5
15 19.06 Ю 3 н/о н/о +16.6 +16.0 96 +16 +16 1016.3 942.6
16 19.06 З 3 25 км 9/9 360 м
[Cu med, cong]
+16.7 +14.5 87 +16 +17 1015.9 942.4
17 19.06 З 3 25 км 9/9 360 м
[Cu med, cong]
+16.2 +14.4 89 +16 +16 1016.1 942.4
18 19.06 З 4 30 км 6/6 450 м
[Cu med, cong]
+16.6 +14.5 87 +16 +17 1015.9 942.2 +18.9
19 19.06 З 4 н/о н/о +17.0 +14.0 82 +17 +17 1015.9 942.3
20 19.06 СЗ 4 н/о н/о +14.6 +13.5 93 +13 +13 1016.4 942.3
21 19.06 СЗ 4 н/о н/о +13.7 +13.6 99 +12 +12 1016.9 942.5
22 19.06 СЗ 4 н/о н/о +13.3 +13.3 100 +11 +11 1017.3 942.8
23 19.06 СЗ 4 н/о н/о +12.9 +12.9 100 +11 +11 1017.6 943.0
00 20.06 СЗ 3 н/о н/о +12.1 +12.1 100 +10 +10 1017.6 942.7
01 20.06 СЗ 4 н/о н/о +11.6 +11.6 100 +9 +9 1017.3 942.3
02 20.06 СЗ 4 н/о н/о +11.4 +11.4 100 +9 +9 1017.0 941.9
03 20.06 СЗ 4 н/о н/о +11.1 +11.1 100 +9 +9 1016.9 941.8
04 20.06 С 2 н/о н/о +10.3 +10.3 100 +9 +9 1017.1 941.8
05 20.06 С 3 н/о н/о +10.7 +10.7 100 +8 +8 1017.0 941.7
06 20.06 С 3 н/о н/о +10.9 +10.9 100 +9 +9 1016.9 941.8 +10.1
07 20.06 С 2 н/о н/о +12.5 +12.5 100 +11 +11 1016.6 941.8
08 20.06 СЗ 3 н/о н/о +12.9 +12.1 95 +11 +11 1016.4 941.8
09 20.06 З 2 н/о н/о +14.4 +11.3 82 +14 +14 1016.3 942.1
10 20.06 СЗ 1 н/о н/о +15.5 +12.8 84 +16 +16 1016.2 942.2
11 20.06 З 3 н/о н/о +16.3 +11.4 73 +16 +16 1016.1 942.4
12 20.06 З 4 н/о н/о +16.9 +12.8 77 +16 +16 1015.9 942.3
13 20.06 З 4 н/о н/о +17.8 +12.5 71 +18 +18 1015.9 942.4
14 20.06 З 5 н/о н/о +17.6 +12.9 74 +17 +17 1015.3 942.0
15 20.06 З 5 н/о н/о +17.8 +13.6 76 +17 +17 1015.2 941.8
16 20.06 З 6 н/о н/о +18.0 +12.7 71 +17 +17 1014.7 941.5
17 20.06 З 6 н/о н/о +17.5 +12.1 71 +17 +17 1014.8 941.5
18 20.06 З 5 н/о н/о +18.2 +12.2 68 +18 +18 1014.8 941.5 +19.6
19 20.06 З 6 н/о н/о +15.1 +12.5 84 +13 +13 1015.9 941.9
20 20.06 СЗ 6 н/о н/о +13.6 +12.9 96 +11 +11 1016.5 942.0
21 20.06 СЗ 6 н/о н/о +12.1 +12.1 100 +9 +9 1017.7 942.8
22 20.06 СЗ 6 н/о н/о +11.6 +11.6 100 +8 +8 1018.5 943.4
23 20.06 СЗ 4 н/о н/о +10.7 +10.7 100 +8 +8 1019.0 943.6
00 21.06 СЗ 4 н/о н/о +10.3 +10.3 100 +7 +7 1019.1 943.7
01 21.06 СЗ 4 н/о н/о +10.3 +10.3 100 +7 +7 1019.0 943.5
02 21.06 СЗ 4 н/о н/о +9.9 +9.9 100 +7 +7 1019.0 943.4
03 21.06 СЗ 5 н/о н/о +10.6 +10.6 100 +7 +7 1018.5 943.1
04 21.06 СЗ 2 н/о н/о +10.8 +10.8 100 +9 +9 1018.3 943.0
05 21.06 СЗ 2 н/о н/о +10.8 +10.8 100 +9 +9 1018.7 943.4
06 21.06 СЗ 2 н/о н/о +11.2 +11.2 100 +10 +10 1019.1 943.8 +9.6
07 21.06 С 2 30 км 6/6 450 м
[Cu med, cong]
+11.5 +11.5 100 +10 +10 1019.4 944.1
08 21.06 С 2 30 км 6/6 450 м
[Cu med, cong]
+12.2 +12.2 100 +11 +11 1019.5 944.4
09 21.06 З 2 н/о н/о +13.3 +13.2 99 +12 +12 1019.1 944.5
10 21.06 Ю 1 30 км 6/6 450 м
[Cu med, cong]
+18.1 +11.8 67 +19 +26 1018.1 944.4
11 21.06 З 1 30 км 6/6 450 м
[Cu med, cong]
+18.8 +11.4 62 +21 +21 комфорт 1017.5 944.3
12 21.06 СЗ 2 30 км 6/6 450 м
[Cu med, cong]
+19.8 +13.3 66 +22 +30 комфорт 1017.4 944.3
13 21.06 З 3 30 км 5/5 450 м
[Cu med, cong]
+20.8 +10.5 52 +23 +31 комфорт 1016.7 943.9
14 21.06 З 3 30 км 4/4 450 м
[Cu med, cong]
+22.8 +10.7 46 +25 +34 комфорт 1016.0 943.6
15 21.06 ЮЗ 3 н/о н/о +23.3 +10.4 44 +25 +25 комфорт 1015.4 943.2
16 21.06 З 5 30 км 4/4 450 м
[Cu med, cong]
+22.4 +11.4 50 +25 +28 комфорт 1015.1 942.9
17 21.06 З 5 30 км 4/4 450 м
[Cu med, cong]
+21.6 +13.7 61 +24 +26 комфорт 1015.2 942.8
18 21.06 З 6 40 км 1/1 450 м
[Cu med, cong]
+20.1 +14.0 68 +22 +23 комфорт 1015.8 943.0 +24.0
19 21.06 З 6 40 км 1/0
[Ac lent]
+18.2 +13.1 72 +18 +18 1016.4 943.1
20 21.06 СЗ 5 н/о н/о +15.9 +12.9 82 +15 +15 1016.9 943.1
21 21.06 СЗ 4 н/о н/о +14.4 +12.7 90 +13 +13 1017.4 943.1
22 21.06 ЮЗ 2 н/о н/о +14.3 +12.2 87 +14 +14 1017.5 943.3
23 21.06 СЗ 3 н/о н/о +12.6 +12.6 100 +11 +11 1017.8 943.1
00 22.06 С 2 н/о н/о +13.6 +12.3 92 +13 +13 1017.3 942.7
01 22.06 З 1 н/о н/о +13.4 +12.4 94 +13 +13 1016.9 942.4
02 22.06 СЗ 2 н/о н/о +12.5 +12.5 100 +11 +11 1016.8 942.1
03 22.06 ЮВ 1 н/о н/о +12.8 +12.8 100 +13 +13 1016.4 941.8
04 22.06 В 1 н/о н/о +12.5 +12.5 100 +12 +12 1016.0 941.3
05 22.06 В 2 н/о н/о +13.0 +13.0 100 +12 +12 1015.6 940.9
06 22.06 В 3 н/о н/о +13.8 +13.8 100 +13 +13 1015.1 940.8 +11.9
07 22.06 В 3 н/о н/о +17.6 +14.0 79 +18 +18 1014.4 940.9
08 22.06 ЮВ 2 н/о н/о +19.0 +13.7 71 +21 +21 комфорт 1014.0 941.0
09 22.06 Ю 2 н/о н/о +19.9 +14.3 70 +23 +23 комфорт 1013.8 941.0
10 22.06 Ю 3 н/о н/о +20.6 +12.1 58 +23 +23 комфорт 1013.4 940.9
11 22.06 Ю 4 н/о н/о +22.1 +12.5 54 +25 +25 комфорт 1013.2 941.0
12 22.06 ЮЗ 4 н/о н/о +23.0 +12.2 51 +26 +26 жарко 1012.8 940.8
13 22.06 ЮЗ 5 н/о н/о +24.0 +11.7 46 +26 +26 жарко 1012.3 940.5
14 22.06 ЮЗ 5 н/о н/о +23.9 +4.1 28 +24 +24 комфорт 1011.8 940.2
15 22.06 З 4 н/о н/о +23.8 +11.0 45 +25 +25 комфорт 1011.6 939.9
16 22.06 СЗ 4 н/о н/о +23.7 +11.3 46 +25 +25 комфорт 1011.5 939.8
17 22.06 З 5 н/о н/о +20.9 +10.7 52 +23 +23 комфорт 1012.0 939.6
18 22.06 СЗ 4 н/о н/о +20.2 +10.6 54 +22 +22 комфорт 1012.3 939.7 +25.3
19 22.06 СЗ 3 н/о н/о +18.0 +11.3 65 +18 +18 1013.2 940.1
20 22.06 СЗ 2 н/о н/о +16.6 +9.8 64 +17 +17 1013.4 939.9
21 22.06 Ю 2 н/о н/о +16.7 +9.0 60 +17 +17 1013.6 940.1
22 22.06 ЮЗ 2 н/о н/о +15.8 +7.1 56 +16 +16 1013.9 940.1
23 22.06 ЮЗ 2 н/о н/о +15.5 +7.4 58 +15 +15 1013.7 939.9
00 23.06 З 2 н/о н/о +14.9 +7.2 60 +15 +15 1014.0 940.1
01 23.06 С 2 н/о н/о +13.6 +9.8 78 +13 +13 1014.2 939.9
02 23.06 В 3 н/о н/о +11.9 +11.9 100 +10 +10 1014.2 939.5 2
03 23.06 В 3 н/о н/о +11.9 +11.9 100 +10 +10 1013.5 938.9 2
04 23.06 В 2 н/о н/о +12.9 +12.9 100 +12 +12 1012.6 938.2 1
05 23.06 ЮВ 1 н/о н/о +13.8 +13.8 100 +14 +14 1012.5 938.3
06 23.06 ЮВ 3 н/о н/о +13.1 +13.1 100 +12 +12 1012.7 938.4 +11.6 5
07 23.06 Ю 3 н/о н/о +13.3 +13.3 100 +12 +12 1013.2 938.8 0.3
08 23.06 Ю 3 н/о н/о +14.2 +14.2 100 +13 +13 1013.2 939.2 0.1
09 23.06 Ю 4 н/о н/о +15.1 +15.1 100 +14 +14 1013.2 939.3
10 23.06 Ю 4 н/о н/о +15.3 +15.3 100 +14 +14 1013.2 939.5 0.4
11 23.06 Ю 4 н/о н/о +16.0 +16.0 100 +15 +15 1013.2 939.6 2
12 23.06 ЮЗ 4 н/о н/о +16.1 +16.1 100 +15 +15 1013.5 940.0 0.2
13 23.06 Ю 4 н/о н/о +16.8 +16.8 100 +16 +16 1013.5 940.0 0.5
14 23.06 Ю 4 н/о н/о +17.1 +17.1 100 +17 +17 1013.4 940.0 0.1
15 23.06 Ю 4 н/о н/о +17.6 +17.6 100 +17 +17 1013.0 939.8 0.1
16 23.06 ЮЗ 4 н/о н/о +17.5 +17.5 100 +17 +17 1012.9 939.7
17 23.06 ЮЗ 3 н/о н/о +17.8 +17.8 100 +18 +18 1012.6 939.4 0.2
18 23.06 СЗ 3 н/о н/о +17.0 +17.0 100 +17 +17 1012.9 939.6 +20.4 4
19 23.06 СЗ 3 н/о н/о +16.5 +16.5 100 +16 +16 1013.0 939.6
20 23.06 СЗ 3 н/о н/о +15.6 +15.6 100 +15 +15 1013.5 939.8
21 23.06 СЗ 3 н/о н/о +15.6 +15.6 100 +15 +15 1014.0 940.2 3
22 23.06 СЗ 3 н/о н/о +15.3 +15.3 100 +15 +15 1014.2 940.4
23 23.06 З 2 н/о н/о +15.1 +15.1 100 +15 +15 1014.3 940.4
00 24.06 СЗ 2 н/о н/о +14.9 +14.9 100 +14 +14 1014.4 940.4
01 24.06 СЗ 1 н/о н/о +14.6 +14.6 100 +15 +15 1014.0 940.0
02 24.06 СЗ 2 н/о н/о +14.5 +14.5 100 +14 +14 1013.7 939.7
03 24.06 СЗ 2 н/о н/о +14.0 +14.0 100 +13 +13 1013.7 939.5
04 24.06 СЗ 2 н/о н/о +13.6 +13.6 100 +13 +13 1014.0 939.7
05 24.06 СЗ 3 н/о н/о +13.1 +13.0 99 +12 +12 1013.9 939.6
06 24.06 СЗ 3 н/о н/о +12.9 +12.9 100 +11 +11 1014.3 939.8 +12.7
07 24.06 СВ 2 н/о н/о +13.9 +13.9 100 +13 +13 1013.8 939.5
08 24.06 ЮЗ 2 6000 м в посл. час ливневой дождь 10/10 180 м
[Frnb]
+14.7 +14.6 99 +14 +14 1014.4 940.4
09 24.06 Ю 2 н/о {ливн. осадки} н/о +14.3 +14.3 100 +14 +14 1015.1 940.9 0.1
10 24.06 Ю 3 8000 м дымка 9/9 180 м
[Cu med, cong]
+13.4 +13.4 100 +12 +13 1015.2 940.8
11 24.06 Ю 2 15 км 9/9 360 м
[Cu med, cong]
+15.1 +10.4 73 +15 +17 1015.4 941.4
12 24.06 ЮВ 3 15 км 9/9 360 м
[Cu med, cong]
+15.5 +11.8 79 +15 +17 1015.5 941.5 0.1
13 24.06 Ю 3 15 км 9/9 360 м
[Cu med, cong]
+15.6 +12.1 80 +15 +15 1015.6 941.7
14 24.06 ЮВ 3 15 км 9/9 360 м
[Cu med, cong]
+14.8 +12.6 87 +14 +14 1015.6 941.5
15 24.06 ЮВ 3 25 км 9/9 360 м
[Cb calv]
+15.3 +12.5 83 +15 +16 1016.0 942.1
16 24.06 Ю 2 25 км 8/5 360 м
[Cu med, cong Ac cuf]
+15.0 +13.7 92 +15 +18 1015.7 941.6
17 24.06 Ю 3 25 км 8/5 360 м
[Cu med, cong Ac cuf]
+17.2 +13.6 79 +17 +19 1015.3 941.6
18 24.06 Ю 2 25 км 8/4 360 м
[Cu med, cong Ac cuf]
+16.1 +14.0 87 +16 +17 1015.2 941.4 +17.4
19 24.06 Ю 2 н/о н/о +16.3 +13.9 86 +16 +16 1015.6 941.9
20 24.06 Ю 1 н/о н/о +14.8 +13.1 90 +15 +15 1016.2 942.0
21 24.06 Ю 1 н/о н/о +14.2 +13.5 96 +14 +14 1016.6 942.4
22 24.06 ЮЗ 2 н/о н/о +14.5 +14.2 98 +14 +14 1017.0 942.7
23 24.06 СЗ 2 н/о н/о +13.3 +13.3 100 +12 +12 1017.3 942.7
00 25.06 СЗ 3 н/о н/о +12.5 +12.5 100 +11 +11 1017.4 942.6
01 25.06 СЗ 3 н/о н/о +12.4 +12.4 100 +11 +11 1017.0 942.2
02 25.06 С 2 н/о н/о +12.5 +12.5 100 +11 +11 1016.7 941.9
03 25.06 СВ 3 н/о н/о +12.1 +12.1 100 +10 +10 1016.4 941.5
04 25.06 СВ 4 н/о н/о +12.1 +12.1 100 +10 +10 1016.2 941.4
05 25.06 СВ 5 н/о н/о +12.5 +12.5 100 +10 +10 1016.2 941.5
06 25.06 СВ 5 н/о н/о +12.6 +12.6 100 +10 +10 1016.2 941.5 +11.5 0.1
07 25.06 СВ 3 н/о н/о +13.1 +13.1 100 +12 +12 1016.7 942.1
08 25.06 В 5 25 км 8/4 210 м
[Cu med, cong Ac As]
+13.6 +13.4 99 +12 +12 1016.9 942.4
09 25.06 СВ 3 н/о н/о +14.1 +14.1 100 +13 +13 1017.0 942.7
10 25.06 В 3 25 км в посл. час ливневой дождь 8/4 210 м
[Cu med, cong Ac As]
+15.1 +14.8 98 +14 +18 1017.1 943.0 0.2
11 25.06 ЮВ 3 25 км в посл. час ливневой дождь 8/4 210 м
[Cu med, cong Ac As]
+14.4 +14.4 100 +13 +13 1017.8 943.6 0.3
12 25.06 СВ 3 25 км в посл. час ливневой дождь 8/4 360 м
[Cu med, cong Ac As]
+15.2 +15.2 100 +14 +20 1017.5 943.3 0.9
13 25.06 СВ 3 25 км 8/4 360 м
[Cu med, cong Ac As]
+17.9 +14.7 82 +18 +23 1016.4 943.0
14 25.06 В 2 25 км 8/4 360 м
[Cu med, cong Ac As]
+19.8 +14.3 71 +22 +22 комфорт 1015.8 942.8
15 25.06 Ю 1 25 км 8/6 360 м
[Cu med, cong Ac As]
+21.2 +13.1 60 +24 +28 комфорт 1015.0 942.5
16 25.06 СЗ 2 25 км 8/6 360 м
[Cu med, cong Ac As]
+21.1 +14.9 68 +24 +27 комфорт 1014.5 942.0
17 25.06 СЗ 3 25 км 8/4 360 м
[Cu med, cong Ac As]
+20.6 +14.9 70 +24 +25 комфорт 1014.2 941.7
18 25.06 СЗ 4 30 км 6/3 360 м
[Cu med, cong Ac cuf]
+20.6 +14.7 69 +23 +24 комфорт 1014.2 941.6 +21.9 0.9
19 25.06 СЗ 4 30 км 6/3 360 м
[Cu med, cong Ac cuf]
+19.1 +14.4 74 +20 +21 1014.4 941.5
20 25.06 СЗ 5 н/о н/о +17.5 +15.8 90 +17 +17 1014.8 941.4
21 25.06 СЗ 4 н/о н/о +16.5 +15.4 93 +16 +16 1015.3 941.6 0.9
22 25.06 С 4 н/о н/о +15.5 +15.5 100 +14 +14 1015.7 941.8
23 25.06 С 3 н/о н/о +15.6 +15.6 100 +15 +15 1015.4 941.5
00 26.06 СВ 3 н/о н/о +16.0 +14.8 93 +15 +15 1015.0 941.3
01 26.06 Ю 2 н/о н/о +13.5 +13.5 100 +13 +13 1015.1 940.8
02 26.06 З 1 н/о н/о +12.7 +12.7 100 +13 +13 1015.0 940.4
03 26.06 ЮВ 2 н/о н/о +14.5 +14.5 100 +14 +14 1014.1 940.0
04 26.06 Ю 3 н/о н/о +12.9 +12.9 100 +11 +11 1014.5 940.0
05 26.06 Ю 2 н/о н/о +12.9 +12.9 100 +12 +12 1015.1 940.5
06 26.06 Ю 2 н/о н/о +13.1 +13.1 100 +12 +12 1015.6 941.1 +12.4
07 26.06 Ю 2 н/о н/о +13.2 +13.2 100 +12 +12 1016.1 941.6

 

Местоположение метеостанции Визеу (Португалия): широта 40.72 долгота -7.88 высота над уровнем моря 644 м.

В архиве по умолчанию представлена погода в Визеу за последнюю неделю. Архивные данные за месяц целиком и за предыдущие месяцы, начиная с января 2011 года, Вы можете получить, выбрав интересующий диапазон дат из раскрывающегося списка и нажав кнопку "Ввод!".


*Определитесь, кто Вы:
робот инопланетянин человек

Внимание! Время в таблицах - всемирное. Для получения местного времени необходимо прибавить поправку, которая равна 0 ч.

Смотрите также архив погоды в соседних городах и на ближайших метеорологических станциях:

Погода в Обсерватории Penhas Douradas (Португалия) (43 км)
Погода в Вила-Реале (Португалия) (63 км)
Погода в Оваре (Португалия) (67 км)
Погода в Коимбре (Португалия) (81 км)
Погода в Порту (Португалия) (88 км)
Погода в Кастело Бранко (Португалия) (105 км)
Погода в Саэлисес-эль-Чико (Испания) (108 км)
Погода в Витигудино (Испания) (125 км)
Погода в Виана-ду-Каштелу (Португалия) (127 км)
Погода в Монте-Реале (Португалия) (130 км)

Пояснения к столбцам:

Ветер - указаны скорость ветра в м/с - средняя за 10 мин, порывы в срок и между сроками (в фигурных скобках) и направление, откуда дует ветер: С - северный, СВ - северо-восточный, В - восточный, ЮВ - юго-восточный, Ю - южный, ЮЗ - юго-западный, З - западный, СЗ - северо-западный.
Видимость - горизонтальная дальность видимости в метрах или километрах. При видимости от 1 до 10 км при отсутствии осадков обычно наблюдается дымка, при ухудшении видимости до 1 км и менее - туман. В сухую погоду видимость может ухудшаться дымом, пылью или мглою.
Явления - указаны атмосферные явления, наблюдавшиеся в срок или в последний час перед сроком; фигурными скобками обозначены явления, наблюдавшиеся между сроками (за 1-3 часа до срока); квадратными скобками обозначены град или гололедные отложения с указанием их диаметра в мм.
Облачность - указаны через наклонную черту общая и нижняя облачность в баллах и высота нижней границы облаков в метрах; квадратными скобками обозначены формы облаков: Ci - перистые, Cs - перисто-слоистые, Cc - перисто-кучевые, Ac - высококучевые, As - высокослоистые, Sc - слоисто-кучевые, Ns - слоисто-дождевые, Cu - кучевые, Cb - кучево-дождевые. Подробнее классификацию облаков см. в Атласе облаков (PDF).
T - Температура воздуха - температура, измеренная на высоте 2 м над землей.
Td - Температура точки росы - температура, при понижении до которой содержащийся в воздухе водяной пар достигнет насыщения.
f - Относительная влажность воздуха - влажноcть воздуха, измеренная на высоте 2 м над землей.
Te - Эффективная температура - температура, которую ощущает одетый по сезону человек в тени. Характеристика душности погоды. При расчете учитывается влияние влажности воздуха и скорости ветра на теплоощущения человека.
Tes - Эффективная температура на солнце - температура, которую ощущает человек, с поправкой на солнечный нагрев. Характеристика знойности погоды. Зависит от высоты солнца над горизонтом, облачности и скорости ветра. Ночью, в пасмурную погоду, а также при ветре 12 м/с и более поправка равна нулю.
P - Атмосферное давление - приведенное к уровню моря атмосферное давление.
Po - Атмосферное давление - измеренное на уровне метеостанции атмосферное давление.
Tmin - Минимальная температура - минимум температуры воздуха на высоте 2 м над землей.
Tmax - Максимальная температура - максимум температуры воздуха на высоте 2 м над землей.
R - Количество осадков - Количество выпавших осадков за период времени, мм. При наведении курсора мыши на число - период времени, за который выпало указанное количество осадков.
R24 - Количество осадков - Количество выпавших осадков за 24 часа, мм.
S - Снежный покров - Высота снежного покрова, см. При наведении курсора мыши на число - состояние снежного покрова и степень покрытия местности в баллах.